Flag for Spain Weather past 2 weeks in Sevilla, Spain

Now
104 °F

Passing clouds.


Feels Like: 100 °F
Forecast: 69 / 101 °F
Wind: 10 mph from Southwest

Location: Sevilla / San Pablo

Current Time: Jul 28, 2015 at 6:03:41 PM

Latest Report: Jul 28, 2015 at 5:30 PM


Visibility: N/A

Pressure: 29.83 "Hg

Humidity: 14%

Dew point: 46 °F

Location of SevillaLocation

Historic Weather in Sevilla — Graph

°F

Sevilla temperature yesterday

Maximum temperature yesterday: 102 °F (at 5:30 PM)
Minimum temperature yesterday: 70 °F (at 7:30 AM)
Average temperature yesterday: 87 °F

Past Weeks' High & Low Weather Summary

 TemperatureHumidityPressure
High106 °F (Jul 15, 5:30 PM)78% (Jul 24, 5:30 AM)30.04 "Hg (Jul 24, 5:30 AM)
Low66 °F (Jul 26, 6:30 AM)10% (Jul 14, 3:30 PM)29.83 "Hg (Jul 15, 6:30 PM)
Average87 °F37%29.94 "Hg
* Reported Jul 13 5:00 PM — Jul 28 5:00 PM, Sevilla, Weather by CustomWeather, © 2015

Note: Actual official high and low records may vary slightly from our data, if they occured in-between our weather recording intervals... More about our weather records

Advertising

Sevilla weather history for previous 24 hours

 ConditionsComfort  
Time TempWeatherWind HumidityBarometerVisibility
5:00 PM
Tue, Jul 28
104 °FPassing clouds.9 mph14%29.83 "HgN/A
4:30 PM104 °FPassing clouds.8 mph17%29.83 "HgN/A
4:00 PM104 °FPassing clouds.5 mph19%29.83 "HgN/A
3:30 PM104 °FPassing clouds.6 mph17%29.83 "HgN/A
3:00 PM102 °FSunny.2 mph18%29.83 "Hg10 mi
2:30 PM100 °FSunny.3 mph18%29.86 "Hg10 mi
2:00 PM99 °FSunny.2 mph21%29.86 "Hg10 mi
1:30 PM99 °FSunny.1 mph21%29.86 "Hg10 mi
1:00 PM97 °FSunny.No wind23%29.89 "Hg10 mi
12:30 PM95 °FSunny.1 mph25%29.89 "Hg10 mi
12:00 PM91 °FSunny.1 mph28%29.89 "Hg10 mi
11:30 AM90 °FSunny.No wind33%29.89 "Hg10 mi
11:00 AM88 °FSunny.No wind35%29.89 "Hg10 mi
10:30 AM86 °FSunny.1 mph38%29.89 "Hg10 mi
10:00 AM84 °FSunny.1 mph43%29.89 "Hg10 mi
9:30 AM81 °FSunny.1 mph51%29.89 "Hg10 mi
9:00 AM79 °FSunny.1 mph54%29.89 "Hg10 mi
8:30 AM75 °FSunny.1 mph61%29.89 "Hg10 mi
8:00 AM72 °FClear.1 mph65%29.89 "Hg10 mi
7:30 AM72 °FClear.2 mph65%29.89 "Hg10 mi
7:00 AM72 °FClear.1 mph65%29.86 "Hg10 mi
6:30 AM73 °FClear.No wind65%29.86 "Hg10 mi
6:00 AM73 °FClear.No wind61%29.86 "Hg10 mi
5:30 AM73 °FClear.1 mph65%29.86 "Hg10 mi
5:00 AM73 °FClear.No wind61%29.86 "Hg10 mi
4:30 AM75 °FClear.No wind57%29.86 "Hg10 mi
4:00 AM77 °FClear.No wind57%29.86 "Hg10 mi
3:30 AM77 °FClear.1 mph54%29.86 "Hg10 mi
1:00 AM79 °FClear.3 mph54%29.86 "Hg10 mi
12:30 AM81 °FClear.1 mph48%29.86 "Hg10 mi
12:00 AM82 °FPassing clouds.6 mph45%29.86 "HgN/A
11:30 PM
Mon, Jul 27
82 °FClear.10 mph45%29.86 "Hg10 mi
11:00 PM86 °FClear.10 mph40%29.86 "Hg10 mi
10:30 PM86 °FSunny.10 mph38%29.86 "Hg10 mi
10:00 PM88 °FSunny.13 mph35%29.83 "Hg10 mi
9:30 PM91 °FSunny.14 mph34%29.83 "Hg10 mi
9:00 PM93 °FSunny.18 mph30%29.83 "Hg10 mi
8:30 PM95 °FSunny.16 mph28%29.83 "Hg10 mi
8:00 PM97 °FSunny.16 mph23%29.83 "Hg10 mi
7:30 PM99 °FPassing clouds.12 mph21%29.83 "HgN/A
7:00 PM100 °FPassing clouds.10 mph21%29.83 "HgN/A
6:30 PM102 °FPassing clouds.7 mph18%29.83 "HgN/A
6:00 PM102 °FSunny.5 mph17%29.86 "Hg10 mi
Weather by CustomWeather, © 2015

See weather overviewHow to use our weather pages